Notices

What's New in latest Release from April 7th, 2021:

- Updated Glossary, including Speed of Maximum Gust, and Total Hourly Precipitation

- Updated national and regional climate services offices contacts and prices information

- Addition of station inventory lists for 1981-2010, 1971-2000, and 1961-1990 Normals.

If you haven't already, please take our survey and provide feedback about our website: https://eccc.sondage-survey.ca/f/LanguageSelection.aspx?s=442ca660-fcf1-47c0-95a9-59707d6fd709

Hourly Data Report for April 30, 2017

KENORA A
ONTARIO

49°47'18.000" N
94°21'47.000" W
409.70 m
6034076
71850
YQK

Download Data

Hourly Data (April 2017)
Hourly Data Report for April 30, 2017
TIME
LST
Temp Definition
°C
Dew Point Definition
°C
Rel Hum Definition
%
Precip. Amount Definition
mm

Wind Dir Definition
10's deg

Wind Spd Definition
km/h
Visibility Definition
km
Stn Press Definition
kPa
Hmdx Definition


Wind Chill Definition


Weather Definition


00:00 4.3 -8.8 38   16 9 24.1 97.52     Mainly Clear
01:00 4.2 -8.2 40   17 10 24.1 97.48     LegendNANA
02:00 3.6 -7.9 43   16 10 24.1 97.44     LegendNANA
03:00 3.2 -7.1 47   17 10 24.1 97.43     Mainly Clear
04:00 3.0 -7.3 47   16 11 24.1 97.38     LegendNANA
05:00 2.5 -6.9 50   16 10 24.1 97.40     LegendNANA
06:00 2.4 -6.0 54   17 13 24.1 97.42     Mostly Cloudy
07:00 3.8 -5.2 52   17 13 24.1 97.41     LegendNANA
08:00 5.7 -5.0 46   19 14 24.1 97.32     LegendNANA
09:00 6.9 -6.1 39   19 16 24.1 97.30     Mostly Cloudy
10:00 8.4 -5.8 36   16 17 24.1 97.26     LegendNANA
11:00 9.9 -6.9 30   21 19 24.1 97.22     LegendNANA
12:00 10.9 -6.9 28   22 9 24.1 97.16     Mostly Cloudy
13:00 12.3 -7.2 25   18 12 24.1 97.04     LegendNANA
14:00 13.9 -6.3 24   12 15 24.1 96.93     LegendNANA
15:00 13.5 -7.2 23   12 16 24.1 96.81     Mainly Clear
16:00 13.7 -7.0 23   36 3 24.1 96.74     LegendNANA
17:00 14.1 -8.5 20   10 10 24.1 96.68     LegendNANA
18:00 13.6 -6.6 24   9 17 24.1 96.65     Mainly Clear
19:00 11.3 -6.5 28   7 10 24.1 96.63     LegendNANA
20:00 9.3 -7.0 31   8 10 24.1 96.61     LegendNANA
21:00 8.0 -6.9 34   9 9 24.1 96.59     Mainly Clear
22:00 7.0 -7.1 36   9 10 24.1 96.53     LegendNANA
23:00 6.6 -7.8 35   8 10 24.1 96.48     LegendNANA

Notes on Data Quality.

Legend

  • E = Estimated
  • M = Missing
  • NA = Not Available*
  • [empty] = Indicates an unobserved value
Date modified: